Regional Weather Roundup
Issued by NWS

Home | Current Version | Previous Version | Graphics & Text | Print | Product List | Glossary On
Versions: 1 2 3 4 5 6 7 8 9 10 11 12 13 14 15 16 17 18 19 20 21 22 23 24 25 26 27 28 29 30 31 32 33 34 35 36 37 38 39 40 41 42 43 44 45 46 47 48 49 50
348
ASUS43 KIND 200609
RWRIN

WEATHER ROUNDUP FOR INDIANA
NATIONAL WEATHER SERVICE INDIANAPOLIS IN
100 AM EST MON NOV 20 2017

NOTE: "FAIR" INDICATES FEW OR NO CLOUDS BELOW 12,000 FEET WITH NO
SIGNIFICANT WEATHER AND/OR OBSTRUCTIONS TO VISIBILITY.

* - STATION DOES NOT REPORT WEATHER SUCH AS PRECIPITATION OR FOG.

+ - STATION NOT QUALITY CONTROLLED BY THE NATIONAL WEATHER SERVICE.
    USE DATA WITH CAUTION...ESPECIALLY DEWPOINT AND RELATIVE
    HUMIDITY OBSERVATIONS.

INZ001>003-010>013-019-020-200700-
NORTHWEST INDIANA

CITY           SKY/WX    TMP DP  RH WIND       PRES   REMARKS
GARY /AIRPORT/ CLEAR     31  21  67 S5        30.08F WCI  26
KNOX *+        PTCLDY    28  23  80 SW7       30.10S WCI  21
LA PORTE +     CLEAR     27  21  78 SW7       30.09R WCI  20
6HR MIN TEMP:  27; 6HR MAX TEMP:  30;

MICHIGAN CITY+ CLEAR     28  21  74 SW6       30.08F WCI  22
MONTICELLO +   CLEAR     27  23  84 S6        30.12S WCI  21
6HR MIN TEMP:  27; 6HR MAX TEMP:  30;

RENSSELAER +   CLEAR     30  23  74 SW6       30.11F WCI  24
VALPARAISO     CLEAR     29  22  75 SW9       30.09S WCI  20
6HR MIN TEMP:  29; 6HR MAX TEMP:  31;


$$

LMZ046-743>745-200700-
SOUTHERN LAKE MICHIGAN

STATION/POSITION TIME  TEMP    WIND        PRES    WAVE
                       AIR SEA DIR/SP/G            HT
                 (UTC) (F)     (DEG/KT/KT) (MB)    (FT)
BURNS HARBOR     0540   31     210/  9/ 13 1019.0F
MICHIGAN CITY    0540   30     200/ 11/ 12   N/A

$$

INZ004-005-014>016-021>024-200700-
NORTH CENTRAL INDIANA

CITY           SKY/WX    TMP DP  RH WIND       PRES   REMARKS
GOSHEN         CLEAR     27  19  72 W12       30.08R WCI  17
6HR MIN TEMP:  27; 6HR MAX TEMP:  30;

LOGANSPORT +   CLEAR     28  23  80 SW8       30.14S WCI  20
PERU/GRISSOM   CLEAR     25  23  94 SW9       30.12R WCI  15
6HR MIN TEMP:  25; 6HR MAX TEMP:  30;

ROCHESTER +    CLEAR     30  25  80 SW7       30.11S WCI  23
SOUTH BEND     CLOUDY    26  21  81 SW9       30.08R WCI  17
6HR MIN TEMP:  26; 6HR MAX TEMP:  29;

WARSAW +       PTCLDY    28  21  74 W7        30.09S WCI  21

$$

INZ006>009-017-018-025>027-200700-
NORTHEAST INDIANA

CITY           SKY/WX    TMP DP  RH WIND       PRES   REMARKS
AUBURN +       CLEAR     28  21  74 SW6       30.08S WCI  22
FORT WAYNE     PTCLDY    29  22  75 W12       30.10R WCI  19
6HR MIN TEMP:  29; 6HR MAX TEMP:  32;

HUNTINGTON +   CLEAR     27  21  79 W8        30.11S WCI  19
6HR MIN TEMP:  27; 6HR MAX TEMP:  29;

KENDALLVILLE + CLEAR     28  22  80 W8        30.06S WCI  19

$$

INZ028-029-035-036-043>045-051>053-200700-
WEST CENTRAL INDIANA

CITY           SKY/WX    TMP DP  RH WIND       PRES   REMARKS
CRAWFORDSVL +  CLEAR     25  23  93 S7        30.11F WCI  17
6HR MIN TEMP:  25; 6HR MAX TEMP:  28;

GREENCASTLE +  CLEAR     27  21  80 CALM      30.17R
LAFAYETTE      CLEAR     27  23  85 S3        30.14S
6HR MIN TEMP:  26; 6HR MAX TEMP:  29;

TERRE HAUTE    CLOUDY    28  21  75 SW3       30.18S
6HR MIN TEMP:  26; 6HR MAX TEMP:  31;


$$

INZ030>032-037>040-046>048-054>057-064-065-200700-
CENTRAL INDIANA

CITY           SKY/WX    TMP DP  RH WIND       PRES   REMARKS
CP ATTERBURY + CLEAR     25  23  93 CALM      30.19R
FISHERS *+     CLEAR     25  25 100 CALM      30.16R
FRANKFORT +    CLEAR     28  25  86 SW5       30.15S WCI  23
6HR MIN TEMP:  28; 6HR MAX TEMP:  32;

GREENWOOD *+   CLEAR     30  24  80 SW6       30.17R WCI  24
INDIANAPOLIS   CLEAR     26  21  81 SW8       30.17R WCI  18
6HR MIN TEMP:  25; 6HR MAX TEMP:  30;

-EAGLE CREEK   CLEAR     27  20  75 SW5       30.15R WCI  22
6HR MIN TEMP:  27; 6HR MAX TEMP:  32;

KOKOMO +       CLEAR     27  24  89 SW9       30.14  WCI  18
6HR MIN TEMP:  26; 6HR MAX TEMP:  30;

MARION +       CLEAR     28  25  87 SW8       30.13F WCI  20
MT COMFORT *+  CLEAR     25  25 100 SW6       30.16R WCI  18
SHELBYVILLE    CLEAR     26  20  77 SW7       30.17R WCI  18
6HR MIN TEMP:  26; 6HR MAX TEMP:  30;

ZIONSVILLE +   CLEAR     27  23  85 W8        30.15R WCI  18
6HR MIN TEMP:  26; 6HR MAX TEMP:  29;


$$

INZ033-034-041-042-049-050-058-059-200700-
EAST CENTRAL INDIANA

CITY           SKY/WX    TMP DP  RH WIND       PRES   REMARKS
MUNCIE         CLEAR     29  22  75 SW7       30.13R WCI  22
6HR MIN TEMP:  28; 6HR MAX TEMP:  30;

RICHMOND +     CLEAR     27  23  86 W8        30.14R WCI  18

$$

INZ060-061-067>069-081>083-085>088-200700-
SOUTHWEST INDIANA

CITY           SKY/WX    TMP DP  RH WIND       PRES   REMARKS
EVANSVILLE     CLEAR     28  24  85 W3        30.23F
6HR MIN TEMP:  26; 6HR MAX TEMP:  35;

HUNTINGBURG +  CLEAR     27  23  85 S3        30.23R
6HR MIN TEMP:  26; 6HR MAX TEMP:  33;

WASHINGTON +   CLEAR     29  21  71 SW6       30.20F WCI  23
6HR MIN TEMP:  27; 6HR MAX TEMP:  33;


$$

INZ062-063-066-070>080-084-089>092-200700-
SOUTH CENTRAL AND SOUTHEAST INDIANA

CITY           SKY/WX    TMP DP  RH WIND       PRES   REMARKS
BEDFORD +      CLEAR     28  21  74 CALM      30.19S
BLOOMINGTON    CLEAR     28  20  71 SW3       30.18R
6HR MIN TEMP:  28; 6HR MAX TEMP:  32;

MADISON *+     CLEAR     30  23  74 CALM      30.21S
NORTH VERNON + CLEAR     25  21  86 S5        30.20R WCI  19
SEYMOUR +      CLEAR     27  21  80 S6        30.20R WCI  20

$$





USA.gov is the U.S. government's official web portal to all federal, state and local government web resources and services.